Погода в Поддубном

Россия / Воронежская область     49°53′35″N   39°22′23″E
темп.,
°C
ветер,
м/с
пор.,
м/с
влажн.,
%
обл.,
%
осадки,
мм/ч
давл.,
гПа
погр.,
м
22 января, сб
сб2200:00−11ююз4109743 0.0 1010134
03:00−12ю499989 0.0 1010109
06:00−8ююз5119596 0.1 1010285
09:00−7ююз5119682 0.3 1011294
12:00−6ююз5109699 0.1 1012402
15:00−5ююз499499 0.1 1013403
18:00−10ю349978 0.0 101546
21:00−9ю249899 0.1 101699
23 января, вс
вс2300:00−9ююв2398100 0.1 101860
03:00−12юв2199100 0.1 101915
06:00−11в2298100 0.0 101921
09:00−10всв2396100 0.0 102147
12:00−6св4694100 0.0 1022198
15:00−5ссв51094100 0.0 1022383
18:00−6ссв61394100 0.0 1023370
21:00−5ссв71594100 0.2 1022500
24 января, пн
пн2400:00−4св71495100 0.9 1023479
03:00−2св71295100 1.6 1022605
06:00−5всв71395100 0.2 1023512
09:00−7всв71393100 0.3 1025419
12:00−7всв61194100 0.1 1026403
15:00−6всв61094100 0.1 1026439
18:00−7всв61195100 0.1 1027341
21:00−8всв51096100 0.2 1026272
25 января, вт
вт2500:00−8всв4995100 0.4 1026224
03:00−10всв3897100 0.4 1026159
06:00−7всв3896100 0.4 1025228
09:00−8в379783 0.6 1025155
12:00−3юв4795100 0.1 1024237
15:000ююв4894100 0.1 1023547
18:000ю4783100 0.1 1023220
21:00−2ю3793100 0.1 1024262
26 января, ср
ср2600:00−5ю2595100 0.0 102392
03:00−9ююз2398100 0.0 102329
06:00−13ю2210099 0.0 102311
09:00−10юв22100100 0.0 102341
12:00−5ю2496100 0.0 1022178
15:00−4юв3496100 0.1 1022281
18:00−4вюв2496100 0.0 1022176
21:00−5в2497100 0.1 1022163